User: anonymous   Login
Location: Unspecified
(0.0000°N, 0.0000°E)
Time: 06:00:47
(UTC+00:00)
Language:

COSMOS 2454 - Orbit

View from above orbital plane
View from above orbital plane
View from above satellite
View from above satellite

Ground track
Ground track

The orbit data is extracted from the following two-line orbital elements,

1 35635U 09039A   18267.53348038 +.00000023 +00000-0 +55216-5 0  9990
2 35635 082.9594 006.6880 0020626 055.7809 304.5303 13.89630797465544
Epoch (UTC): 24 September 2018 12:48:12
Eccentricity: 0.0020626
inclination: 82.9594°
perigee height: 915 km
apogee height: 945 km
right ascension of ascending node: 6.6880°
argument of perigee: 55.7809°
revolutions per day: 13.89630797
mean anomaly at epoch: 304.5303°
orbit number at epoch: 46554

The dashed part of the orbit path shows where the satellite is in the earth's shadow,  

DLR